This is the latest recevied weather packets stored in our database for station/object DL1DH-17. If no packets are shown the sender has not sent any weather packets the latest 10 day(s).
| Time | Temp. | Humidity | Pressure | Rain* | Wind** | Luminosity | Snow |
|---|---|---|---|---|---|---|---|
| 1777931571 | 15.56° C | 64% | 973.5 hPa | - | - | - | - |
| 1777930730 | 15.56° C | 63% | 973.6 hPa | - | - | - | - |
| 1777929890 | 15.56° C | 62% | 973.6 hPa | - | - | - | - |
| 1777929050 | 16.11° C | 61% | 973.6 hPa | - | - | - | - |
| 1777928210 | 16.11° C | 60% | 973.5 hPa | - | - | - | - |
| 1777927370 | 16.11° C | 60% | 973.5 hPa | - | - | - | - |
| 1777926530 | 16.11° C | 61% | 973.6 hPa | - | - | - | - |
| 1777925690 | 16.11° C | 60% | 973.7 hPa | - | - | - | - |
| 1777924850 | 16.67° C | 59% | 973.6 hPa | - | - | - | - |
| 1777924010 | 17.22° C | 57% | 973.8 hPa | - | - | - | - |
| 1777923170 | 17.22° C | 57% | 973.8 hPa | - | - | - | - |
| 1777922330 | 17.22° C | 57% | 973.7 hPa | - | - | - | - |
| 1777921489 | 17.22° C | 56% | 973.4 hPa | - | - | - | - |
| 1777920649 | 17.22° C | 54% | 973.2 hPa | - | - | - | - |
| 1777919809 | 17.78° C | 54% | 973.1 hPa | - | - | - | - |
| 1777918969 | 17.78° C | 53% | 973.1 hPa | - | - | - | - |
| 1777918129 | 18.33° C | 52% | 973 hPa | - | - | - | - |
| 1777917289 | 18.33° C | 51% | 973 hPa | - | - | - | - |
| 1777916449 | 18.89° C | 50% | 973.1 hPa | - | - | - | - |
| 1777915609 | 18.89° C | 49% | 973 hPa | - | - | - | - |
| 1777914769 | 19.44° C | 47% | 973 hPa | - | - | - | - |
| 1777913929 | 20° C | 47% | 972.9 hPa | - | - | - | - |
| 1777913088 | 20° C | 45% | 972.9 hPa | - | - | - | - |
| 1777912248 | 20.56° C | 45% | 972.8 hPa | - | - | - | - |
| 1777911408 | 20.56° C | 44% | 973 hPa | - | - | - | - |
* Rain since midnight (hover to see other rain measurements)
** Current wind speed in m/s (hover to see current wind gust speed)